This demonstration page uses our WeatherBlox Daily Observations layout. Learn more.

Left ArrowRight Arrow

39.51506, -84.39828

Hourly Observations for March 5, 2021

Temp ( °F °C ) Dew Point ( °F °C ) Humidity (%) Winds ( mph kmh ) Pressure ( in mb ) Visibility ( mi km ) Precip ( " mm )
12:15 am 00:15 Clear 27 -2.9 20 -6.5 77 77 N 6 9 30.33 1027 10 16 N/A
12:35 am 00:35 Clear 27 -2.9 20 -6.5 77 77 N 5 7 30.33 1027 10 16 N/A
12:55 am 00:55 Clear 27 -3 21 -6.3 78 78 N 3 6 30.33 1027 10 16 N/A
1:15 am 01:15 Clear 26 -3.2 21 -6.3 79 79 N 5 7 30.34 1028 10 16 N/A
1:35 am 01:35 Clear 26 -3.6 20 -6.5 81 81 N 5 7 30.35 1028 10 16 N/A
1:55 am 01:55 Clear 26 -3.6 20 -6.4 81 81 NNE 6 9 30.35 1028 10 16 N/A
2:15 am 02:15 Clear 25 -3.8 20 -6.6 81 81 N 5 7 30.35 1028 10 16 N/A
2:35 am 02:35 Clear 25 -3.9 20 -6.5 82 82 N 5 7 30.35 1028 10 16 N/A
2:55 am 02:55 Clear 25 -3.9 20 -6.5 82 82 N 5 7 30.35 1028 10 16 N/A
3:15 am 03:15 Clear 24 -4.4 20 -6.6 85 85 N 5 7 30.35 1028 10 16 N/A
3:35 am 03:35 Clear 23 -4.8 20 -6.7 87 87 NNW 5 7 30.35 1028 10 16 N/A
3:55 am 03:55 Clear 22 -5.7 19 -7.1 90 90 N N/A 30.36 1028 10 16 N/A
4:15 am 04:15 Clear 23 -5.1 20 -6.9 87 87 N N/A 30.36 1028 10 16 N/A
4:35 am 04:35 Clear 22 -5.4 19 -7.2 87 87 N N/A 30.36 1028 10 16 N/A
4:55 am 04:55 Clear 22 -5.7 19 -7.3 89 89 N N/A 30.37 1028 10 16 N/A
5:15 am 05:15 Clear 21 -6 18 -7.6 89 89 N N/A 30.37 1029 10 16 N/A
5:35 am 05:35 Clear 22 -5.5 19 -7.2 88 88 N N/A 30.37 1028 10 16 N/A
5:55 am 05:55 Clear 22 -5.5 19 -7.2 88 88 N N/A 30.37 1028 10 16 N/A
6:15 am 06:15 Clear 20 -6.6 18 -7.6 93 93 N N/A 30.38 1029 10 16 N/A
6:35 am 06:35 Clear 21 -6.2 20 -6.6 97 97 N N/A 30.37 1029 10 16 N/A
6:55 am 06:55 Clear 19 -7 19 -7.4 97 97 NE 3 6 30.39 1029 10 16 N/A
7:15 am 07:15 Sunny 18 -7.6 17 -8.3 95 95 N N/A 30.39 1029 10 16 N/A
7:35 am 07:35 Sunny 20 -6.8 19 -7 98 98 N N/A 30.38 1029 10 16 N/A
7:55 am 07:55 Sunny 21 -6 21 -6.3 98 98 N N/A 30.38 1029 10 16 N/A
8:15 am 08:15 Sunny 24 -4.4 21 -6.3 87 87 N N/A 30.38 1029 10 16 N/A
8:35 am 08:35 Sunny 26 -3.4 21 -6.1 82 82 NNE 5 7 30.38 1029 10 16 N/A
8:55 am 08:55 Sunny 28 -2.3 20 -6.5 73 73 N 6 9 30.38 1029 10 16 N/A
9:15 am 09:15 Sunny 30 -1.2 21 -6.3 69 69 N 7 11 30.38 1029 10 16 N/A
9:35 am 09:35 Sunny 32 -0.2 19 -7.1 60 60 N 7 11 30.39 1029 10 16 N/A
9:55 am 09:55 Sunny 33 0.7 18 -7.9 53 53 N 9 15 30.37 1029 10 16 N/A
10:15 am 10:15 Sunny 34 1.1 18 -7.8 52 52 NNW 6 9 30.38 1029 10 16 N/A
10:35 am 10:35 Sunny 35 1.4 17 -8.6 48 48 NNW 5 7 30.38 1029 10 16 N/A
10:55 am 10:55 Sunny 35 1.5 15 -9.6 44 44 N N/A 30.38 1029 10 16 N/A
11:15 am 11:15 Sunny 37 2.9 14 -10 38 38 NNE 5 7 30.37 1028 10 16 N/A
11:35 am 11:35 Sunny 38 3.4 15 -9.3 39 39 N 8 13 30.36 1028 10 16 N/A
11:55 am 11:55 Sunny 39 3.8 16 -9 39 39 NNW 10 17 30.37 1028 10 16 N/A
12:15 pm 12:15 Sunny 40 4.4 17 -8.3 40 40 N 9 15 30.35 1028 10 16 N/A
12:35 pm 12:35 Sunny 41 5.1 18 -7.9 39 39 N 9 15 30.35 1028 10 16 N/A
1:15 pm 13:15 Sunny 42 5.8 19 -7.1 39 39 N 9 15 30.33 1027 10 16 N/A
1:35 pm 13:35 Sunny 43 6.1 20 -6.7 40 40 N 13 20 30.32 1027 10 16 N/A
1:55 pm 13:55 Sunny 43 6.1 19 -7.2 38 38 N 13 20 30.31 1026 10 16 N/A
2:15 pm 14:15 Sunny 44 6.4 19 -7 38 38 N 9 15 30.30 1026 10 16 N/A
2:35 pm 14:35 Sunny 44 6.8 19 -7.3 36 36 N 14 22 30.29 1026 10 16 N/A
2:55 pm 14:55 Sunny 45 7.2 19 -7.2 35 35 N 8 13 30.29 1026 10 16 N/A
3:15 pm 15:15 Sunny 45 7.4 19 -7.2 35 35 N 10 17 30.28 1025 10 16 N/A
3:35 pm 15:35 Sunny 45 7.3 19 -7.1 35 35 NNW 13 20 30.28 1025 10 16 N/A
3:55 pm 15:55 Sunny 45 7.3 19 -7.1 35 35 N 14 22 30.28 1025 10 16 N/A
4:15 pm 16:15 Sunny 46 7.5 19 -7 35 35 N 12 19 30.29 1026 10 16 N/A
4:35 pm 16:35 Sunny 45 7.4 20 -6.8 36 36 NW 12 19 30.29 1026 10 16 N/A
4:55 pm 16:55 Sunny 45 7 19 -7.3 36 36 NW 10 17 30.29 1026 10 16 N/A
5:15 pm 17:15 Sunny 44 6.9 20 -6.9 37 37 NNW 10 17 30.29 1026 10 16 N/A
5:35 pm 17:35 Sunny 44 6.7 20 -6.8 38 38 NW 10 17 30.29 1026 10 16 N/A
5:55 pm 17:55 Sunny 44 6.4 20 -6.4 40 40 NNW 9 15 30.28 1025 10 16 N/A
6:15 pm 18:15 Sunny 43 5.9 20 -6.9 40 40 NNW 7 11 30.29 1026 10 16 N/A
6:35 pm 18:35 Clear 41 5.2 20 -6.8 42 42 NNW 7 11 30.29 1026 10 16 N/A
6:55 pm 18:55 Clear 40 4.7 20 -6.9 43 43 NW 5 7 30.28 1025 10 16 N/A
7:15 pm 19:15 Clear 38 3.5 22 -5.8 51 51 WNW 3 6 30.29 1026 10 16 N/A
7:35 pm 19:35 Clear 35 1.5 24 -4.7 64 64 W 5 7 30.29 1026 10 16 N/A
7:55 pm 19:55 Clear 31 -0.6 23 -4.9 73 73 N N/A 30.30 1026 10 16 N/A
8:15 pm 20:15 Clear 31 -0.8 24 -4.6 76 76 N N/A 30.30 1026 10 16 N/A
8:35 pm 20:35 Clear 31 -0.4 23 -5 71 71 N N/A 30.29 1026 10 16 N/A
8:55 pm 20:55 Clear 30 -1.1 25 -4.1 80 80 N N/A 30.30 1026 10 16 N/A
9:15 pm 21:15 Clear 30 -1.1 24 -4.4 79 79 N N/A 30.30 1026 10 16 N/A
9:35 pm 21:35 Clear 30 -1.2 24 -4.3 80 80 N N/A 30.30 1026 10 16 N/A
9:55 pm 21:55 Clear 29 -1.7 25 -4.1 84 84 N N/A 30.31 1026 10 16 N/A
10:15 pm 22:15 Clear 28 -2 24 -4.3 84 84 N N/A 30.31 1026 10 16 N/A
10:35 pm 22:35 Clear 29 -1.8 24 -4.7 81 81 NW 5 7 30.31 1026 10 16 N/A
10:55 pm 22:55 Clear 35 1.7 23 -4.8 62 62 NW 13 20 30.30 1026 10 16 N/A
11:15 pm 23:15 Clear 36 2 23 -5.1 60 60 NNW 9 15 30.30 1026 10 16 N/A
11:35 pm 23:35 Clear 35 1.7 22 -5.3 60 60 NNW 7 11 30.30 1026 10 16 N/A
11:55 pm 23:55 Clear 34 1.1 22 -5.5 62 62 N 7 11 30.30 1026 10 16 N/A

Powered by AerisWeather